STARLINK-4638 (53785 NORAD) Tracking and Keplerian Element Data

This shows tracking and keplerian element data for the satellite.

Feedback or suggestion? Click here.




ElementValue
Catalog53785
NameSTARLINK-4638
Epoch Orbit851
Epoch Day308.25001157
Epoch Year2022
RAAN354.7972
Inclination53.2028
Eccentricity0.0012559
Argument of Perigee45.542
Mean Anonmoly282.6262
Mean Motion15.88953668
Decay Rate0.0018102
L11 53785U 22111N 22308.25001157 .00181020 22822-4 62949-3 0 9996
L22 53785 53.2028 354.7972 0012559 45.5420 282.6262 15.88953668 8510



Live tracking and technical data element details for STARLINK-4638 (NORAD 53785). STARLINK-4638 can be tracked NOW for your location showing map with azimuth and elevation plus other details from your city location.







IsCatalogInMostPopularTable: catalog: 53785, numindb: -1

Insert: records affected: 1


GetName: 53785 STARLINK-4638

Hit Count: inserted at: Mon, 28 Nov 2022 05:06:18 GMT